Location: Unspecified
(42.3650°N, 71.1030°W)
Time: 05:12:05
(UTC+00:00)

Vanguard 2 - Visible Passes

Search period start: 06 June 2026 00:00
Search period end: 16 June 2026 00:00
Orbit: 553 x 2894 km, 32.9° (Epoch: 5 June)

Date Brightness Start Highest point End Pass type
(mag) Time Alt. Az. Time Alt. Az. Time Alt. Az.
6 Jun 9.3 01:50:27 10° WSW 01:58:02 49° S 02:10:21 10° ESE visible
6 Jun 9.7 03:57:39 10° W 04:07:23 47° SSW 04:21:59 10° SE visible
6 Jun 10.4 06:06:43 10° W 06:17:23 30° SSW 06:30:51 10° SSE visible
6 Jun 11.2 08:24:29 10° SW 08:27:01 10° SW 08:29:37 10° SW visible
7 Jun 9.3 02:01:56 10° WSW 02:09:31 49° S 02:21:51 10° ESE visible
7 Jun 9.8 04:09:20 10° W 04:18:54 43° SSW 04:24:44 31° SSE visible
7 Jun 10.6 06:19:00 10° WSW 06:35:30 19° S 06:40:51 10° SSE visible
8 Jun 9.3 02:13:30 10° WSW 02:21:03 48° S 02:31:52 13° ESE visible
8 Jun 9.9 04:21:06 10° W 04:30:25 37° SSW 04:32:36 36° S visible
8 Jun 11.0 06:31:41 10° WSW 06:50:31 10° S 06:33:19 13° WSW visible
9 Jun 9.3 02:25:05 10° WSW 02:32:35 45° S 02:40:53 20° SE visible
9 Jun 10.1 04:32:58 10° W 04:41:39 32° SSW 04:41:39 32° SSW visible
9 Jun11.307:04:10S07:04:10S06:42:26WSWvisible
10 Jun 9.4 02:36:42 10° WSW 02:44:08 42° S 02:50:22 25° SE visible
10 Jun 10.3 04:45:01 10° WSW 04:51:10 25° SW 04:51:10 25° SW visible
11 Jun 8.9 00:41:30 10° WSW 00:47:12 41° S 00:56:13 10° ESE visible
11 Jun 9.6 02:48:23 10° WSW 02:55:40 37° SSW 03:00:08 28° SSE visible
11 Jun 10.6 04:57:19 10° WSW 05:00:57 18° SW 05:00:57 18° SW visible
12 Jun 9.0 00:53:02 10° WSW 00:58:42 40° S 01:07:39 10° ESE visible
12 Jun 9.7 03:00:09 10° WSW 03:07:12 32° SSW 03:10:05 29° S visible
12 Jun 10.8 05:10:07 10° WSW 05:10:55 12° WSW 05:10:55 12° WSW visible
13 Jun 9.0 01:04:36 10° WSW 01:10:13 38° S 01:19:00 10° ESE visible
13 Jun 9.9 03:12:02 10° WSW 03:18:45 27° SSW 03:20:09 26° S visible
14 Jun 9.2 01:16:13 10° WSW 01:21:45 34° S 01:29:28 12° SE visible
14 Jun 10.1 03:24:08 10° WSW 03:30:18 22° SSW 03:30:20 22° SSW visible
15 Jun 9.3 01:27:55 10° WSW 01:33:17 30° S 01:39:44 14° SE visible
15 Jun 10.3 03:36:36 10° WSW 03:40:36 17° SSW 03:40:36 17° SSW visible
